Regional Weather Roundup
Issued by NWS

Home | Current Version | Previous Version | Text Only | Print | Product List | Glossary Off
Versions: 1 2 3 4 5 6 7 8 9 10 11 12 13 14 15 16 17 18 19 20 21 22 23 24 25 26 27 28 29 30 31 32 33 34 35 36 37 38 39 40 41 42 43 44 45 46 47 48 49 50

000
ASUS43 KLMK 301802
RWRKY
KENTUCKY REGIONAL WEATHER ROUNDUP
NATIONAL WEATHER SERVICE LOUISVILLE KY
200 PM EDT FRI SEP 30 2016

NOTE "FAIR" INDICATES FEW OR NO CLOUDS BELOW 12,000 FEET
WITH NO SIGNIFICANT WEATHER AND/OR OBSTRUCTIONS TO VISIBILITY.

KYZ001>023-026-027-061>063-070>075-301900-
WESTERN AND SOUTH CENTRAL KENTUCKY

CITY           SKY/WX    TMP DP  RH WIND       PRES   REMARKS
PADUCAH        CLOUDY    63  58  83 W10       30.05F
HENDERSON      PTSUNNY   66  55  68 CALM      30.01F
OWENSBORO      PTSUNNY  N/A N/A N/A NE9       30.02F
HOPKINSVILLE   CLOUDY    66  56  70 NW12      30.04F
BOWLING GREEN  LGT RAIN  61  57  87 SW5       30.04F
GLASGOW        CLOUDY    55  55 100 S6        30.05F
$$

KYZ024-025-028>034-038-045-046-053-301900-
NORTH CENTRAL KENTUCKY

CITY           SKY/WX    TMP DP  RH WIND       PRES   REMARKS
LOUISVILLE/SDF CLOUDY    60  53  77 CALM      30.04F
LOUISVILLE/LOU CLOUDY    60  54  80 VRB3      30.04F
FORT KNOX      DRIZZLE   57  55  91 E6        30.02F
$$

KYZ035>037-039>044-047>052-055>060-089>105-301900-
NORTHEAST KENTUCKY

CITY           SKY/WX    TMP DP  RH WIND       PRES   REMARKS
LEXINGTON      PTSUNNY   63  51  65 SW8       30.05S
COVINGTON      CLOUDY    66  56  70 W3        30.02F
FRANKFORT      CLOUDY    62  52  69 S7        30.04S
$$

KYZ054-064>069-076>088-106>120-301900-
SOUTHEAST KENTUCKY

CITY           SKY/WX    TMP DP  RH WIND       PRES   REMARKS
JACKSON        MOSUNNY   61  52  72 SE6       30.05F
LONDON         CLOUDY    56  48  74 VRB3      30.07F
SOMERSET       PTSUNNY   61  48  63 CALM      30.07F
MIDDLESBORO    CLOUDY    67  49  52 CALM      30.03F
MONTICELLO     MOCLDY    65  52  62 W10G17    30.07S
$$





USA.gov is the U.S. government's official web portal to all federal, state and local government web resources and services.